TimeCST,TemperatureF,Dew PointF,Humidity,Sea Level PressureIn,VisibilityMPH,Wind Direction,Wind SpeedMPH,Gust SpeedMPH,PrecipitationIn,Events,Conditions,WindDirDegrees,DateUTC
12:56 AM,63.0,61.0,93,29.86,9.0,South,4.6,-,N/A,,Clear,170,2013-02-05 06:56:00
1:56 AM,61.0,61.0,100,29.85,8.0,South,3.5,-,N/A,,Clear,170,2013-02-05 07:56:00
2:56 AM,60.1,60.1,100,29.86,5.0,Calm,Calm,-,N/A,,Clear,0,2013-02-05 08:56:00
3:13 AM,59.0,59.0,100,29.86,1.2,Calm,Calm,-,N/A,,Partly Cloudy,0,2013-02-05 09:13:00
3:15 AM,57.2,57.2,100,29.87,0.8,Calm,Calm,-,N/A,,Mist,0,2013-02-05 09:15:00
3:30 AM,57.2,57.2,100,29.87,0.2,Calm,Calm,-,N/A,Fog,Fog,0,2013-02-05 09:30:00
3:56 AM,57.0,57.0,100,29.86,0.2,Calm,Calm,-,N/A,Fog,Fog,0,2013-02-05 09:56:00
4:27 AM,55.4,53.6,94,29.88,0.2,Calm,Calm,-,N/A,Fog,Fog,0,2013-02-05 10:27:00
4:43 AM,55.4,55.4,100,29.88,0.2,Calm,Calm,-,N/A,Fog,Fog,0,2013-02-05 10:43:00
4:56 AM,55.0,55.0,100,29.87,0.5,SSE,3.5,-,N/A,Fog,Fog,160,2013-02-05 10:56:00
5:04 AM,55.4,55.4,100,29.88,0.2,SSE,3.5,-,N/A,Fog,Fog,160,2013-02-05 11:04:00
5:23 AM,55.4,55.4,100,29.88,0.2,SSE,4.6,-,N/A,Fog,Fog,160,2013-02-05 11:23:00
5:51 AM,53.6,53.6,100,29.89,0.2,South,3.5,-,N/A,Fog,Fog,170,2013-02-05 11:51:00
5:56 AM,54.0,54.0,100,29.88,0.2,Calm,Calm,-,N/A,Fog,Fog,0,2013-02-05 11:56:00
6:04 AM,53.6,53.6,100,29.89,0.2,Calm,Calm,-,N/A,Fog,Fog,0,2013-02-05 12:04:00
6:30 AM,55.4,55.4,100,29.90,0.2,SSE,3.5,-,N/A,Fog,Fog,150,2013-02-05 12:30:00
6:56 AM,57.0,57.0,100,29.90,0.1,Calm,Calm,-,N/A,Fog,Fog,0,2013-02-05 12:56:00
7:44 AM,57.2,57.2,100,29.92,0.1,Calm,Calm,-,N/A,Fog,Fog,0,2013-02-05 13:44:00
7:56 AM,59.0,59.0,100,29.91,0.1,Calm,Calm,-,N/A,Fog,Fog,0,2013-02-05 13:56:00
8:28 AM,60.8,60.8,100,29.94,0.1,Calm,Calm,-,N/A,Fog,Fog,0,2013-02-05 14:28:00
8:56 AM,63.0,63.0,100,29.94,0.1,Calm,Calm,-,N/A,Fog,Fog,0,2013-02-05 14:56:00
9:10 AM,62.6,62.6,100,29.95,0.2,SSW,3.5,-,N/A,Fog,Fog,200,2013-02-05 15:10:00
9:18 AM,64.4,64.4,100,29.95,1.2,South,3.5,-,N/A,,Mostly Cloudy,190,2013-02-05 15:18:00
9:26 AM,64.4,64.4,100,29.95,3.0,SW,3.5,-,N/A,,Mostly Cloudy,220,2013-02-05 15:26:00
9:56 AM,66.9,64.9,93,29.95,9.0,SSW,6.9,-,N/A,,Mostly Cloudy,200,2013-02-05 15:56:00
10:56 AM,75.9,64.9,69,29.94,10.0,South,3.5,-,N/A,,Scattered Clouds,170,2013-02-05 16:56:00
11:56 AM,82.0,62.1,51,29.93,10.0,Calm,Calm,-,N/A,,Scattered Clouds,0,2013-02-05 17:56:00
12:56 PM,84.9,57.0,38,29.90,10.0,Calm,Calm,-,N/A,,Scattered Clouds,0,2013-02-05 18:56:00
1:56 PM,88.0,52.0,29,29.86,10.0,SSW,6.9,-,N/A,,Scattered Clouds,200,2013-02-05 19:56:00
2:56 PM,89.1,51.1,27,29.85,10.0,Calm,Calm,-,N/A,,Mostly Cloudy,0,2013-02-05 20:56:00
3:56 PM,90.0,50.0,25,29.82,10.0,Calm,Calm,-,N/A,,Mostly Cloudy,0,2013-02-05 21:56:00
4:56 PM,82.0,61.0,49,29.83,10.0,East,16.1,25.3,N/A,,Mostly Cloudy,100,2013-02-05 22:56:00
5:56 PM,75.9,64.0,67,29.85,10.0,ESE,15.0,-,N/A,,Mostly Cloudy,110,2013-02-05 23:56:00
6:56 PM,72.0,66.0,81,29.87,10.0,SE,12.7,-,N/A,,Mostly Cloudy,130,2013-02-06 00:56:00
7:56 PM,70.0,66.9,90,29.89,10.0,ESE,11.5,-,N/A,,Mostly Cloudy,120,2013-02-06 01:56:00
8:29 PM,69.8,66.2,88,29.91,10.0,ESE,11.5,-,N/A,,Mostly Cloudy,120,2013-02-06 02:29:00
8:56 PM,70.0,66.9,90,29.90,10.0,ESE,10.4,-,N/A,,Mostly Cloudy,120,2013-02-06 02:56:00
9:35 PM,69.8,68.0,94,29.91,8.0,SE,10.4,-,N/A,,Overcast,130,2013-02-06 03:35:00
9:56 PM,70.0,68.0,93,29.90,8.0,ESE,10.4,-,N/A,,Overcast,120,2013-02-06 03:56:00
10:56 PM,70.0,68.0,93,29.91,7.0,ESE,9.2,-,N/A,,Overcast,120,2013-02-06 04:56:00
11:56 PM,70.0,69.1,97,29.96,6.0,SSE,10.4,-,0.00,Rain,Light Rain,160,2013-02-06 05:56:00